Regional Weather Roundup
Issued by NWS

Home | Current Version | Previous Version | Text Only | Print | Product List | Glossary On
Versions: 1 2 3 4 5 6 7 8 9 10 11 12 13 14 15 16 17 18 19 20 21 22 23 24 25 26 27 28 29 30 31 32 33 34 35 36 37 38 39 40 41 42 43 44 45 46 47 48 49 50
000
ASUS45 KBOU 222107
RWRCO

WEATHER ROUNDUP FOR COLORADO
NATIONAL WEATHER SERVICE DENVER/BOULDER CO
300 PM MDT FRI SEP 22 2017

NOTE: "FAIR" INDICATES FEW OR NO CLOUDS BELOW 12000 FEET WITH NO
SIGNIFICANT WEATHER AND/OR OBSTRUCTIONS TO VISIBILITY.

COZ001>005-013-030-031-222200-
...NORTHWEST COLORADO...

CITY           SKY/WX    TMP DP  RH WIND       PRES   REMARKS
CRAIG          FAIR      64  38  38 SE13      29.84F
HAYDEN         FAIR      59  36  42 W15       29.87R
MEEKER         PTSUNNY   66  32  28 SW15G23   29.84R
RABBIT EARS PA MOCLDY    50  36  57 S5        30.08F
STEAMBOAT SPGS PTSUNNY   61  37  41 SE15G31   29.87F
WALDEN         FAIR      61  32  33 S20G26    29.94F
$$

COZ006>008-011-222200-
...WEST CENTRAL VALLEYS...

CITY           SKY/WX    TMP DP  RH WIND       PRES   REMARKS
GRAND JUNCTION PTSUNNY   72  34  24 SW25G39   29.76R
MONTROSE       FAIR      75  28  17 S22G39    29.83F
EAGLE          PTSUNNY   68  37  32 SW16G25   29.88F
RIFLE          FAIR      76  26  15 SW23G37   29.78F
DELTA          NOT AVBL
NUCLA          FAIR      73  21  14 S21G31    29.86F
$$

COZ017>023-064>068-222200-
...SOUTHWEST COLORADO...

CITY           SKY/WX    TMP DP  RH WIND       PRES   REMARKS
DURANGO        FAIR      71  35  26 S24G36    29.94F
CORTEZ         FAIR      75  26  16 SW14G40   29.86F
PAGOSA SPRINGS PTSUNNY   64  36  35 SW12      30.04R
TELLURIDE      PTSUNNY   54  35  49 S16G36    30.06R
WOLF CREEK PAS CLOUDY    36  36 100 S13G21    30.28F
$$

COZ009-010-012-014-032>034-037-058>063-222200-
...CENTRAL COLORADO...

CITY           SKY/WX    TMP DP  RH WIND       PRES   REMARKS
ASPEN          PTSUNNY   65  37  35 N13       29.90S
BUENA VISTA    LGT RAIN  65  36  33 S6        29.95F
COPPER MTN     PTSUNNY   46  30  53 S21G32    30.19S
BERTHOUD PASS  LGT RAIN  36  30  80 S21G37    30.23F
COTTONWOOD PAS PTSUNNY   61  36  39 SW12G24   30.08F
GUNNISON       FAIR      65  34  31 S23G36    29.96F
KREMMLING      FAIR      72  34  25 SW5       29.91F
LEADVILLE      PTSUNNY   55  28  35 S18G30    30.05F
MONARCH PASS   CLOUDY    46  27  46 SW58G67   30.29F
SALIDA         PTSUNNY   72  28  20 S25G33    30.01R
SUNLIGHT       LGT RAIN  43  34  70 S13G26    30.10F
WILKERSON PASS FAIR      55  28  35 SW13G22   30.19R
$$

COZ069>075-222200-
...SAN LUIS VALLEY/SANGRE DE CRISTO MOUNTAINS...

CITY           SKY/WX    TMP DP  RH WIND       PRES   REMARKS
ALAMOSA        FAIR      72  32  23 SW28G36   29.98S
DEL NORTE      FAIR      65  37  34 SW21G28   30.02S
LA VETA PASS   FAIR      59  30  33 S40G56    30.24F
SAGUACHE       FAIR      68  34  28 SW21G38   30.00S
$$

COZ035-036-038>040-222200-
...NORTHERN COLORADO FRONT RANGE...

CITY           SKY/WX    TMP DP  RH WIND       PRES   REMARKS
DENVER INTL AP PTSUNNY   81  37  20 NW13      29.75R
DMNS CITY PARK   N/A     71  39  31 N9G21     29.77S
AURORA         PTSUNNY   75  41  28 NW15      29.77F
FRONT RANGE AP PTSUNNY   82  30  15 S16G29    29.76F
ERIE MUNI ARPT FAIR      69  38  31 N12       29.83R
BOULDER MUN AP FAIR      68  37  32 N5        29.80R
CENTENNIAL     PTSUNNY   79  34  19 SW18G29   29.78S
BROOMFIELD     PTSUNNY   72  39  30 NW14      29.81S
FORT COLLINS   FAIR      74  41  30 NE6       29.79S
LONGMONT       LGT RAIN  72  42  33 N7        29.81R
$$

COZ041-046-047-076>085-087-088-222200-
...PIKES PEAK/PALMER DIVIDE AND SOUTHERN FOOTHILLS...

CITY           SKY/WX    TMP DP  RH WIND       PRES   REMARKS
COLO. SPRINGS  PTSUNNY   80  32  17 S28G35    29.85F
A. F. ACADEMY  FAIR      80  29  15 S24G37    29.85F
SCHRIEVER AFB  FAIR      77  28  17 S24G30    29.86F
CHEYENNE MTN   FAIR      74  28  18 SE24G39   29.83S
ELLICOTT         N/A    N/A N/A N/A SW26G36   29.85F
FALCON         FAIR      75  28  17 S26G36    29.91F
FORT CARSON    NOT AVBL
LIMON          NOT AVBL
MONUMENT HILL  FAIR      73  32  21 S29G40    29.90F
CANON CITY     MOSUNNY   86  34  15 SE12G25   29.78F
WALSENBURG     FAIR      81  28  15 SW22G33   29.88S
TRINIDAD       FAIR      83  37  19 S28G38    29.86F
$$

COZ042>045-048>051-090-091-222200-
...NORTHEAST COLORADO...

CITY           SKY/WX    TMP DP  RH WIND       PRES   REMARKS
GREELEY ARPT   FAIR      77  41  27 E18       29.75S
AKRON          FAIR      86  32  14 S21G29    29.77S
BURLINGTON     FAIR      89  34  14 SW26G40   29.82R
WRAY           FAIR      91  32  12 S17G23    29.72F
YUMA           FAIR      82  37  20 S14G23    29.75S
STERLING       FAIR      73  46  38 NE15      29.76F
HOLYOKE        FAIR      84  39  20 NE10      29.76S
FORT MORGAN    FAIR      80  37  21 NE21G26   29.76F
$$

COZ086-089-092>099-222200-
...SOUTHEAST COLORADO...

CITY           SKY/WX    TMP DP  RH WIND       PRES   REMARKS
PUEBLO         FAIR      86  34  15 S21       29.76F
LA JUNTA       FAIR      91  35  13 S23G40    29.76F
LAMAR          FAIR      94  37  13 S25G38    29.74F
SPRINGFIELD      N/A     90  44  20 S30G39    29.83F
$$



USA.gov is the U.S. government's official web portal to all federal, state and local government web resources and services.